COSMOS 1933 (18958 NORAD) Tracking and Keplerian Element Data

This shows tracking and keplerian element data for the satellite.

Feedback or suggestion? Click here.




ElementValue
Catalog18958
NameCOSMOS 1933
Epoch Orbit93127
Epoch Day12.89314293
Epoch Year2024
RAAN303.4741
Inclination82.5354
Eccentricity0.0007984
Argument of Perigee52.6154
Mean Anonmoly307.58
Mean Motion15.08440426
Decay Rate5.501E-05
L11 18958U 88020A 24012.89314293 .00005501 00000+0 35142-3 0 9995
L22 18958 82.5354 303.4741 0007984 52.6154 307.5800 15.08440426931272



Live tracking and technical data element details for COSMOS 1933 (NORAD 18958). COSMOS 1933 can be tracked NOW for your location showing map with azimuth and elevation plus other details from your city location.







IsCatalogInMostPopularTable: catalog: 18958, numindb: 337
Update: records affected: 1



GetName: 18958 COSMOS 1933

Hit Count: updated at: Fri, 19 Apr 2024 13:17:08 GMT